Location: Boussac
(44.2782°N, 2.3665°E)
Time: 15:30:21
(UTC+00:00)

Cosmos 2279 Rocket - Pass Details

Date: 15 May 2026
Orbit: 962 x 978 km, 82.9° (Epoch: 10 June)

Event Time Altitude Azimuth Distance (km) Brightness Sun altitude
Exits shadow 22:16:39 43° 123° (ESE) 1,343 4.3 -23.4°
Maximum altitude 22:17:51 48° 90° (E) 1,252 4.4 -23.5°
Drops below altitude 10° 22:23:50 10° 18° (NNE) 2,737 7.0 -23.9°
Sets 22:26:25 0° 14° (NNE) 3,689 7.9 -24.1°
